User: anonymous   Login
Location: Unspecified
(0.0000°N, 0.0000°E)
Time: 11:18:35
(UTC+00:00)
Language:

Azur - Orbit

View from above orbital plane
View from above orbital plane
View from above satellite
View from above satellite

Ground track
Ground track

The orbit data is extracted from the following two-line orbital elements,

1  4221U 69097A   19141.88149431 +.00002280 +00000-0 +11090-3 0  9990
2  4221 102.7051 334.5609 0622959 162.5374 199.8307 14.26628999349412
Epoch (UTC): 21 May 2019 21:09:21
Eccentricity: 0.0622959
inclination: 102.7051°
perigee height: 355 km
apogee height: 1250 km
right ascension of ascending node: 334.5609°
argument of perigee: 162.5374°
revolutions per day: 14.26628999
mean anomaly at epoch: 199.8307°
orbit number at epoch: 34941

The dashed part of the orbit path shows where the satellite is in the earth's shadow,  

DLR